{"data":{"norad_id":64112,"intl_designator":"2025-110S","name":"STARLINK-34136","alt_names":[],"object_type":"PAYLOAD","status":"ACTIVE","operator":null,"country":"US","launch_date":"2025-05-23","launch_site_code":"AFWTR","launch_vehicle":null,"mission":null,"orbit_class":"UNKNOWN","rcs_meters":null,"size_class":null,"mass_kg":null,"dimensions":null,"purposes":["comms"],"wikipedia_slug":null,"has_3d_model":false,"image_url":null,"decayed_at":null,"tle_current":{"epoch":"2026-05-24T22:54:18.723168Z","epoch_age_seconds":74940,"freshness":"FRESH","line1":"1 64112U 25110S   26144.95438337  .00011043  00000+0  36696-3 0  9993","line2":"2 64112  53.1611  32.1866 0001311  99.4798 260.6352 15.31711676 57566","mean_motion":15.31711676,"eccentricity":0.0001311,"inclination_deg":53.1611,"raan_deg":32.1866,"arg_perigee_deg":99.4798,"mean_anomaly_deg":260.6352,"bstar":0.00036696,"rev_number":5756,"period_min":94.012471313172,"perigee_km":469.80730668722,"apogee_km":471.60307310941,"semimajor_km":6848.8421898983,"source":"CELESTRAK","updated_at":"2026-05-25T13:38:20.267438Z"}}}